Theta_e
331 332 332 332 334 336 336 335 336 336 336 336 335 333 332 332 333 333 334 334 334 332 333 331 331 334 334 334 334 334 336 334 333 331 329 329 326 327 331 330 330 332 332 330 329 324 321 318 320 326 328 331 333 333 332 332 331 331 332 332 331 331 332
334 332 333 333 333 335 335 336 335 335 335 337 337 335 333 332 333 332 333 333 334 334 332 332 332 332 333 333 332 332 333 334 334 334 333 329 329 329 329 328 329 329 330 331 330 329 323 320 319 320 322 327 329 332 333 335 333 332 332 332 331 331 332
331 331 332 332 332 334 333 334 334 334 333 335 335 334 333 332 333 332 332 331 332 333 332 332 332 331 332 333 332 332 333 333 335 336 333 332 331 333 331 329 327 328 328 327 327 326 327 326 321 319 322 321 321 326 330 329 331 332 331 332 332 330 331
334 332 331 330 331 332 331 332 333 332 333 333 333 332 333 332 333 334 332 331 333 332 331 332 330 331 333 333 334 333 332 332 333 334 333 333 333 333 333 331 329 328 326 324 324 325 325 324 323 322 322 322 323 324 327 329 329 330 331 332 331 331 331
333 331 330 330 330 330 331 331 332 333 333 333 334 332 332 332 332 333 332 331 331 331 331 332 331 331 333 333 332 331 330 331 334 333 332 331 331 333 333 333 331 331 331 328 329 328 327 326 325 323 321 322 323 325 327 328 329 329 330 330 330 331 331
331 332 332 331 332 330 330 330 331 331 332 331 331 330 331 331 331 331 331 330 329 329 330 331 331 332 332 332 331 329 330 330 331 331 329 331 331 331 331 333 332 332 331 332 332 330 330 330 327 325 323 324 321 323 324 326 325 328 329 329 330 330 330
328 329 329 329 330 330 330 331 331 331 330 331 329 329 332 332 331 331 331 331 330 329 329 331 331 332 331 331 331 331 329 330 332 332 332 333 332 333 335 332 333 331 331 333 333 331 330 328 325 324 323 323 324 322 323 324 326 323 326 328 328 329 329
328 327 328 329 329 329 330 329 331 332 331 332 331 332 332 332 331 330 330 330 329 330 330 331 332 332 332 331 331 330 330 332 331 332 332 334 333 333 334 334 333 333 333 332 332 331 330 329 328 327 324 319 319 322 320 322 323 323 324 327 328 328 330
328 327 327 328 329 329 329 330 329 331 331 333 332 330 331 331 330 329 329 329 330 330 330 330 331 331 330 331 332 331 330 331 330 330 330 334 335 334 333 334 333 332 334 333 332 332 330 331 330 331 327 324 319 317 320 320 320 321 326 324 326 329 329
328 327 326 328 329 330 330 329 329 330 330 330 330 331 330 330 331 329 329 330 330 330 330 331 331 331 331 331 331 330 329 330 330 330 331 334 333 335 334 333 332 333 333 334 333 332 332 332 331 330 328 326 325 320 316 317 319 320 324 325 321 325 328
329 329 330 330 330 329 330 330 329 328 328 330 330 330 331 330 331 330 329 330 329 329 331 331 331 331 331 332 332 331 332 332 331 331 331 331 334 334 333 332 332 332 334 334 333 334 332 331 330 329 329 329 328 323 321 318 319 324 323 326 325 323 325
329 329 330 330 331 329 329 329 328 328 328 329 330 329 330 329 330 331 330 329 330 330 331 330 330 330 331 331 331 330 329 330 329 330 331 332 332 332 331 330 331 331 333 333 333 333 331 329 329 329 328 329 329 328 325 322 318 325 326 323 324 326 324
329 329 329 329 329 328 328 328 328 328 329 329 328 329 330 329 329 328 330 330 330 330 329 330 330 330 330 330 331 329 330 330 330 330 330 332 331 331 329 328 329 331 331 332 332 331 329 328 329 328 328 329 328 329 327 323 321 321 323 324 325 325 324
326 330 330 330 329 328 328 328 328 329 330 329 328 328 329 329 328 329 329 329 330 330 328 328 329 331 329 329 330 328 328 328 327 329 329 327 328 329 329 329 329 331 333 332 332 332 330 327 327 328 328 327 327 328 326 324 321 320 320 322 323 322 322
319 324 329 330 328 327 328 328 328 329 329 330 329 328 328 329 329 329 328 329 330 330 330 330 329 330 328 327 327 327 327 328 329 328 327 326 329 329 329 329 330 332 333 331 333 330 330 327 326 325 326 326 325 325 326 323 322 320 319 317 317 318 319
316 318 321 326 328 328 328 329 329 328 328 328 329 329 329 329 329 329 329 329 329 328 328 329 329 327 326 326 325 327 328 328 327 327 327 328 329 329 330 330 331 331 331 331 331 331 331 329 327 326 325 325 325 325 324 324 323 320 320 317 319 316 317
314 315 317 320 324 328 329 328 328 328 328 329 330 330 330 330 330 329 329 329 329 329 329 330 330 328 326 326 327 327 328 328 328 329 329 330 330 330 331 331 332 332 330 330 329 330 330 330 328 327 326 326 325 324 325 324 323 321 321 318 315 315 316
311 312 313 317 320 324 327 328 328 327 327 328 329 329 329 330 329 328 326 327 328 328 329 329 329 328 328 328 327 328 327 328 329 331 333 333 332 332 331 331 332 331 330 330 329 328 329 329 328 328 327 326 325 325 324 322 321 322 322 320 318 316 317
311 311 312 314 317 321 324 326 327 327 327 327 328 329 329 329 327 328 327 326 327 328 329 329 329 330 329 329 328 327 328 329 329 332 333 333 333 333 332 332 333 331 330 330 330 329 330 330 329 329 328 327 326 324 323 322 321 320 320 321 321 316 315
310 311 311 312 315 319 321 325 326 326 327 327 327 327 328 328 328 329 328 327 326 327 329 329 328 327 329 330 329 330 330 329 331 332 332 333 333 333 333 333 332 331 330 330 330 330 331 331 330 329 329 329 327 325 323 321 320 319 319 319 320 321 317
309 310 311 312 314 317 320 323 325 326 327 326 326 327 327 328 328 328 329 328 328 329 330 330 329 328 329 329 330 330 331 331 331 331 332 332 331 333 332 331 331 331 331 331 330 330 331 331 331 329 329 331 330 328 325 324 321 320 319 319 320 316 315
308 309 309 310 311 312 315 320 323 325 325 326 327 327 328 329 329 328 328 329 328 329 329 329 329 330 329 329 330 330 331 331 331 331 331 330 331 331 329 329 330 331 331 328 321 321 320 320 324 324 328 331 330 329 328 327 325 322 323 322 321 319 315
307 308 308 309 309 310 311 315 320 323 324 325 326 327 328 328 329 328 327 327 327 327 328 329 323 315 317 328 330 330 331 331 331 330 329 328 329 329 329 328 330 325 321 318 311 307 306 309 315 324 329 330 330 330 329 327 325 324 321 318 318 318 315
306 306 307 308 308 308 309 313 317 321 323 324 325 326 326 327 328 328 328 327 325 325 326 324 309 303 305 311 327 331 331 331 331 331 330 330 329 329 330 330 331 327 323 317 314 303 304 304 306 307 311 316 322 331 330 327 326 325 322 321 321 319 316
304 304 305 305 305 306 307 309 314 319 322 323 324 325 325 326 327 327 328 327 326 325 323 312 302 302 302 303 312 330 332 332 331 331 330 331 331 331 331 331 331 329 328 327 326 315 308 302 301 300 299 300 302 303 306 325 327 325 324 323 322 321 320
303 304 304 304 304 304 304 305 305 309 316 323 324 323 324 325 326 327 327 326 326 324 321 304 299 300 300 300 302 317 330 332 332 331 331 332 331 329 330 330 328 327 327 318 321 321 318 311 298 296 296 296 295 296 298 297 299 324 328 324 323 322 322
303 303 303 304 303 302 302 302 303 304 306 312 321 322 323 323 324 323 324 324 324 323 321 302 296 297 298 298 299 309 330 330 330 330 330 330 331 330 330 329 326 325 325 323 323 320 318 316 314 313 315 317 314 306 297 295 296 296 310 324 322 321 322
303 302 303 303 302 301 300 301 301 301 303 302 301 306 316 319 318 317 317 320 321 319 316 297 294 295 295 296 296 305 328 327 326 326 326 328 330 329 327 327 324 322 325 324 322 318 318 317 317 316 315 314 314 312 313 315 317 318 317 320 321 321 318
303 303 302 302 301 301 300 300 299 300 300 300 301 301 301 303 304 306 307 309 312 314 310 293 293 293 293 294 297 321 324 323 322 320 319 320 322 324 325 325 324 322 322 323 309 302 309 317 316 314 312 311 310 308 305 298 295 301 315 319 318 315 313
303 303 302 301 301 300 300 300 300 300 299 299 299 299 299 300 302 303 304 306 306 306 306 297 292 293 293 294 305 321 320 318 317 316 314 314 315 316 318 319 320 321 321 320 304 298 300 305 315 313 311 310 310 309 307 303 296 293 293 293 293 293 293
303 303 302 301 301 301 302 301 301 300 299 298 297 298 298 299 299 300 301 301 301 301 302 298 292 294 294 295 307 319 318 316 314 312 310 310 312 313 309 305 313 318 319 317 296 296 297 309 315 313 311 309 309 308 307 307 305 302 294 294 294 294 294
303 302 302 302 302 302 301 301 302 301 300 299 298 298 298 297 297 298 299 299 300 298 299 298 292 291 294 295 307 316 315 314 310 309 309 307 308 309 308 305 299 307 314 306 294 295 296 308 316 314 312 311 308 308 308 309 308 308 309 309 309 308 305
302 302 302 302 302 302 303 302 302 301 300 300 299 299 299 298 296 296 298 298 298 298 298 298 294 291 292 293 295 311 313 311 308 307 307 307 307 307 308 307 302 293 295 294 293 293 295 302 313 314 314 311 309 306 309 310 309 309 308 307 307 307 307
302 303 303 302 302 302 302 302 302 301 301 300 300 299 298 297 296 296 297 297 297 297 297 297 295 291 292 292 292 298 309 309 308 307 306 305 307 307 306 305 303 293 292 292 292 292 294 297 301 313 314 312 310 307 304 306 305 301 308 307 306 305 305
302 302 302 303 302 301 301 302 302 301 301 300 299 298 298 297 296 296 296 296 296 296 297 296 296 292 291 292 292 294 301 301 303 305 304 304 303 303 302 301 300 293 290 291 291 291 292 293 295 308 304 295 293 295 307 306 307 307 306 305 304 303 304
301 301 301 302 302 301 301 300 300 300 299 299 299 298 297 296 296 295 295 296 296 296 297 297 293 294 291 291 292 292 293 297 295 303 300 299 299 298 298 297 295 292 291 291 291 292 293 293 297 298 292 293 293 294 299 306 304 304 303 302 302 301 301
300 301 301 301 301 301 301 300 300 299 299 298 297 297 297 296 295 294 294 294 295 295 296 296 294 292 292 290 291 291 291 291 293 299 299 298 299 298 297 296 293 290 291 291 291 291 291 293 294 291 292 292 293 296 302 302 301 300 298 298 299 298 298
Wind_Speed
10 10 9 9 10 9 10 11 10 9 9 9 10 11 10 10 9 9 9 8 10 9 10 8 10 8 8 10 11 12 10 10 12 10 11 11 12 11 10 8 3 2 6 8 8 8 8 10 8 4 4 6 5 5 6 6 6 6 5 4 5 5 4
7 8 7 8 9 9 11 9 10 8 8 10 10 11 11 11 9 9 9 9 8 9 8 7 8 7 9 10 10 10 11 10 10 9 10 11 11 9 11 10 6 6 6 5 6 7 7 8 8 9 8 5 5 6 5 5 5 5 5 5 4 4 4
7 7 7 8 9 10 12 11 8 8 7 8 9 10 10 12 12 12 10 11 10 9 7 8 8 9 9 10 12 12 11 11 9 9 9 9 10 9 11 10 9 6 6 6 7 8 5 6 6 10 10 10 9 7 6 6 6 6 6 5 5 5 4
10 10 9 9 9 9 10 11 8 9 7 8 8 8 9 10 12 12 10 10 10 8 6 7 7 9 10 10 9 11 10 11 10 10 9 9 9 9 10 9 9 9 9 10 9 10 8 6 5 8 8 9 8 8 7 7 6 6 6 6 5 5 4
10 8 10 10 10 10 10 10 8 8 7 7 8 9 9 11 10 10 11 10 8 7 7 7 7 9 8 7 9 7 8 11 9 9 9 10 11 8 10 8 9 8 7 7 7 8 9 7 7 7 8 9 7 6 6 7 7 6 6 6 6 5 5
10 10 11 10 8 8 9 10 9 8 7 9 9 9 10 12 10 10 11 10 8 8 8 8 8 8 8 7 8 11 9 11 11 10 10 11 12 10 9 10 9 9 8 6 5 7 6 5 6 6 7 9 8 8 6 8 7 6 6 6 6 6 5
9 9 9 9 9 8 7 8 8 9 10 10 10 9 10 11 9 10 9 9 9 8 9 10 9 8 9 9 10 11 13 11 9 11 12 12 12 13 9 10 10 9 9 6 6 6 7 7 7 7 7 7 7 7 5 6 6 6 7 6 7 6 5
8 7 7 7 8 9 7 9 7 8 9 8 9 9 10 11 11 9 9 9 8 8 9 10 9 8 9 11 12 13 11 9 9 9 10 13 12 13 11 9 8 9 8 7 6 7 7 8 8 7 9 9 7 6 6 6 6 9 6 7 7 6 6
6 7 7 6 7 7 8 7 8 8 8 7 6 8 9 9 9 10 8 8 7 7 9 9 9 8 12 14 13 13 13 9 10 12 12 12 12 14 11 9 9 10 8 7 8 7 8 7 7 7 8 9 9 8 7 6 7 8 8 6 6 7 6
9 9 8 9 10 8 8 8 9 8 5 7 9 8 10 9 9 11 11 10 9 10 9 10 9 10 12 12 13 13 13 12 12 14 11 9 11 11 9 11 9 8 8 7 7 7 7 7 7 7 8 8 8 7 8 8 8 8 8 9 7 8 8
8 8 8 10 8 8 8 8 8 7 8 9 8 9 11 12 11 11 10 9 9 10 9 8 9 10 11 10 12 11 9 12 14 12 12 12 11 11 11 10 9 9 8 7 7 7 7 7 7 8 8 8 8 7 7 8 7 8 6 8 8 6 8
8 8 8 9 8 8 10 10 10 9 9 9 9 10 9 10 9 8 10 11 11 12 10 9 8 8 11 11 12 10 11 11 12 13 14 12 10 10 12 13 12 11 7 7 7 7 6 7 7 7 8 8 7 8 7 7 6 5 5 7 8 7 7
10 8 8 9 8 9 10 10 10 11 10 9 9 10 9 10 7 9 8 10 9 9 8 8 9 8 9 12 10 9 9 13 14 13 11 9 7 9 10 10 11 10 9 6 7 7 7 7 7 8 8 8 7 7 7 7 7 3 4 4 6 7 7
12 10 9 8 9 9 8 8 10 9 8 9 9 10 10 12 8 9 11 9 11 10 9 10 8 9 9 10 8 8 6 9 11 10 6 6 10 12 11 12 12 11 8 8 7 7 7 8 8 7 7 7 7 7 8 8 8 5 3 1 2 5 6
10 11 11 10 8 9 10 9 10 9 10 7 8 10 12 10 8 10 10 11 12 13 12 13 11 8 8 10 10 9 9 12 13 10 9 14 12 10 12 13 13 10 9 9 8 8 8 7 8 9 8 8 8 7 9 9 8 7 4 3 4 3 5
9 10 12 11 10 8 9 9 8 8 9 9 10 10 10 9 10 10 11 10 10 9 11 12 11 9 9 9 10 10 11 12 11 10 11 12 12 10 11 12 11 10 9 11 9 7 7 9 9 10 10 8 9 8 9 10 7 7 6 5 5 6 5
11 10 9 9 12 11 7 7 8 8 9 9 9 10 11 11 9 10 10 10 12 10 10 11 10 10 12 10 10 12 12 11 11 11 13 13 12 12 12 11 10 10 10 11 10 8 7 8 8 9 9 8 8 8 7 7 8 6 5 5 5 6 6
12 12 11 10 12 11 10 8 7 9 9 10 9 8 9 9 9 9 7 6 8 10 11 11 11 11 10 10 10 10 10 11 12 12 12 11 11 11 12 11 10 11 10 12 10 9 8 10 9 8 9 8 8 7 6 7 8 6 4 7 5 4 4
13 13 12 11 11 11 10 9 7 7 9 10 9 9 10 7 9 10 11 12 11 11 11 10 12 12 12 11 11 12 12 12 12 11 10 10 10 10 10 11 9 10 11 10 9 9 9 11 9 9 10 8 8 7 7 7 7 7 9 8 6 5 4
14 14 12 11 11 10 10 9 9 8 8 9 10 10 9 11 11 12 12 10 8 10 11 11 8 7 9 10 13 13 12 12 11 9 9 9 10 9 9 9 9 11 11 10 8 9 9 9 8 9 9 8 8 8 7 8 8 9 9 9 7 5 5
14 14 13 13 11 11 11 10 9 9 8 10 11 11 11 11 12 12 12 12 13 12 12 11 10 10 10 10 10 10 10 10 10 9 9 6 5 7 6 8 9 9 11 10 8 6 5 5 3 4 5 7 8 9 8 8 8 8 8 8 5 5 5
14 15 15 13 13 12 12 11 10 9 9 9 8 10 10 11 11 12 12 12 13 12 12 10 9 10 10 10 9 9 9 9 9 9 9 9 10 6 8 9 9 10 11 10 9 8 7 8 8 10 11 9 9 9 8 8 7 7 4 2 3 6 6
15 15 15 15 14 13 11 11 10 9 9 9 9 10 11 11 11 12 12 11 11 10 10 10 8 12 10 9 10 8 8 8 8 8 8 9 9 10 10 8 8 11 10 9 11 11 12 12 12 12 9 9 9 8 9 8 7 7 7 9 9 6 1
15 15 15 14 14 14 14 11 10 9 8 9 10 9 9 12 11 10 11 11 10 7 6 6 10 11 11 10 8 8 9 8 8 9 9 9 9 9 9 10 9 9 9 10 12 13 13 13 15 14 8 9 7 8 9 8 8 8 8 8 7 9 11
15 15 15 15 15 14 12 12 12 10 8 9 9 8 10 11 11 10 9 11 10 7 6 8 12 12 11 11 8 8 7 7 8 9 9 9 8 8 9 9 8 7 7 9 8 8 9 10 9 7 9 7 5 1 3 6 8 8 8 8 8 9 11
16 16 16 16 15 13 12 12 13 13 11 8 7 8 10 10 10 9 9 11 10 8 6 9 12 13 13 12 11 8 6 7 7 7 7 7 7 7 7 8 8 7 8 11 10 10 9 7 7 10 10 9 6 3 2 3 6 5 7 8 8 8 9
16 17 17 17 16 15 13 12 11 10 11 13 7 6 6 7 8 7 8 8 7 6 6 8 10 11 11 12 12 9 6 6 5 6 7 7 6 7 8 8 8 10 10 10 9 10 10 10 10 9 8 6 5 5 5 4 5 7 6 5 5 6 2
17 16 17 17 17 16 15 14 14 11 11 12 13 12 8 5 3 2 3 4 4 3 1 5 9 9 9 11 11 9 5 4 4 4 4 5 6 7 7 6 7 6 9 11 9 12 12 11 10 8 8 7 6 4 4 2 1 5 7 6 5 3 4
17 17 17 16 17 17 16 16 14 13 10 10 11 11 11 11 11 9 8 8 7 3 3 7 3 6 8 10 12 7 6 5 5 4 4 3 3 4 6 8 8 10 9 10 12 14 13 12 11 10 9 9 8 7 8 7 7 8 5 4 5 6 5
17 17 17 17 17 17 17 16 14 11 11 12 14 15 14 13 9 9 8 6 5 5 6 11 8 3 7 11 11 6 6 5 4 5 4 4 3 3 3 4 3 5 10 10 13 15 15 14 11 11 10 9 8 9 9 7 12 15 16 16 16 14 13
17 17 17 17 17 16 15 15 15 13 13 11 12 10 10 10 12 11 11 10 8 5 7 12 12 5 4 12 10 8 8 7 6 5 5 4 3 4 4 7 3 7 8 11 14 15 16 13 11 11 11 11 11 10 8 7 7 9 13 15 16 16 16
15 15 16 16 16 16 15 14 13 13 13 11 10 10 12 12 12 11 12 12 16 11 9 10 14 10 6 9 7 6 7 8 7 6 6 5 4 4 4 4 6 1 6 10 15 15 15 12 10 11 11 11 11 11 9 8 9 10 8 8 8 10 11
14 14 15 13 13 14 14 14 14 14 14 11 10 11 11 13 14 12 12 13 13 12 10 9 13 16 12 10 9 3 6 8 8 8 6 6 6 4 4 4 5 7 12 14 11 9 8 7 10 10 10 10 11 11 8 8 7 8 9 9 9 9 10
11 12 13 13 12 12 12 13 15 15 14 14 13 13 13 13 14 13 12 12 11 13 13 10 12 17 16 14 13 8 3 2 7 8 7 7 5 6 5 5 5 7 11 11 9 7 6 4 5 7 7 8 9 12 11 10 10 10 10 10 9 9 8
9 9 11 13 14 13 12 11 11 12 13 15 16 16 13 11 11 13 11 12 12 11 13 19 9 15 18 16 16 16 7 7 7 4 8 6 6 6 6 6 5 8 12 12 11 11 10 10 10 7 9 16 17 14 11 10 9 8 9 9 8 7 6
8 8 9 10 13 14 14 12 12 11 12 12 14 15 16 13 11 10 11 11 11 12 10 11 17 13 17 17 16 17 17 12 13 9 8 9 8 8 8 8 8 13 15 14 14 13 13 14 12 11 15 15 14 14 12 9 9 8 7 7 7 7 6
8 8 11 11 11 13 14 13 13 11 11 11 11 13 13 12 11 11 11 10 10 11 12 10 14 18 16 19 18 19 18 19 16 10 10 9 9 10 10 10 10 16 17 17 17 17 16 14 11 13 13 14 13 11 9 8 7 7 7 6 7 6 6
Wind_Direction
230 246 246 243 240 239 227 225 230 227 213 212 202 192 191 216 203 198 206 201 209 200 186 178 194 201 203 195 195 203 196 190 188 191 188 184 191 200 203 204 225 234 185 192 198 186 181 180 183 181 215 203 189 200 204 195 190 175 167 170 170 164 163
228 238 231 234 241 241 241 231 230 221 208 213 214 200 196 206 197 192 186 192 204 207 199 183 190 202 211 195 186 194 198 194 195 197 187 190 195 197 190 203 207 203 182 197 193 198 190 178 180 180 191 190 207 201 201 199 195 189 186 183 171 169 153
231 242 238 238 235 238 243 241 235 225 212 216 217 201 197 200 199 195 196 195 197 200 193 183 187 201 213 207 197 193 195 199 199 199 196 191 198 198 198 195 196 185 184 186 202 201 204 198 176 188 185 186 197 198 192 198 198 196 198 191 186 182 164
238 237 241 240 242 234 243 251 245 238 221 217 210 206 203 199 198 198 197 194 194 194 189 176 176 190 212 207 199 197 194 200 208 206 198 197 198 197 199 192 197 191 196 195 195 198 192 179 174 175 179 192 196 183 194 197 200 199 202 196 200 186 176
259 254 249 248 245 241 245 253 256 255 243 227 219 209 198 195 194 199 203 196 183 174 187 184 186 187 195 194 195 192 197 200 209 209 195 202 203 207 203 202 206 204 191 200 196 195 193 183 178 167 180 184 194 203 169 185 201 202 208 206 203 190 186
277 268 264 260 253 245 248 253 252 250 243 235 225 219 205 199 195 195 200 197 188 183 181 194 194 184 184 195 194 197 203 203 205 207 196 203 204 206 204 208 209 205 207 206 192 194 194 181 186 166 173 175 185 185 168 185 190 204 209 208 204 198 187
288 285 281 276 268 256 246 244 244 247 245 236 231 223 221 205 201 196 192 202 202 186 182 194 195 186 186 192 199 199 205 206 200 211 210 203 208 212 206 204 209 212 215 200 195 196 188 184 192 190 160 170 193 186 163 188 190 192 200 208 201 196 195
290 287 286 283 280 270 255 250 245 245 242 239 233 230 226 215 203 203 195 195 191 196 185 190 190 188 188 197 200 201 198 197 197 208 220 208 202 202 204 205 200 208 208 202 200 207 200 201 196 181 169 171 181 196 186 193 187 216 195 187 193 197 200
280 274 278 269 262 258 261 254 255 251 252 253 243 230 227 214 202 202 195 194 186 190 189 186 187 190 193 200 201 199 201 202 193 201 219 216 209 205 199 201 214 212 203 198 203 202 208 206 206 184 184 178 173 180 195 201 211 217 201 183 180 200 195
293 288 275 266 259 249 242 245 247 247 226 246 246 230 227 215 214 210 205 195 196 195 184 183 191 196 200 202 204 202 205 204 205 206 207 205 214 204 196 199 210 211 201 195 202 199 203 207 208 201 201 202 194 185 181 205 210 215 187 203 195 187 199
297 282 269 269 263 252 248 245 244 235 219 215 226 236 232 220 215 212 203 198 200 191 191 180 187 202 207 206 202 201 200 206 206 206 209 210 208 208 204 204 210 220 203 193 196 195 194 199 204 204 208 214 211 210 190 205 209 208 198 188 211 179 181
287 274 268 268 266 260 256 244 239 234 227 215 210 223 230 221 207 212 211 205 202 196 189 186 186 196 206 205 201 196 190 201 208 207 208 206 203 204 205 211 212 216 200 187 191 190 189 194 203 205 210 217 213 222 209 221 228 172 210 187 198 202 171
308 285 272 269 259 255 253 252 242 235 227 217 202 204 221 226 193 208 210 213 191 189 183 181 182 195 203 211 203 198 196 202 209 206 199 197 189 203 197 201 212 217 206 191 194 188 185 194 202 209 210 211 208 210 216 226 236 187 184 206 182 184 168
318 304 286 264 256 250 243 238 242 238 231 223 208 201 201 221 199 206 210 214 205 185 184 184 179 193 198 204 193 177 180 204 214 210 170 164 202 206 204 206 210 211 195 198 198 191 189 189 195 206 213 208 209 197 211 222 229 206 134 171 172 172 165
335 328 306 287 261 255 249 244 239 237 236 230 211 216 218 204 171 206 214 212 210 198 192 193 187 188 198 195 187 175 176 205 209 191 156 194 200 192 199 209 215 202 196 203 199 200 190 188 195 203 206 211 208 199 207 223 224 223 174 153 185 171 162
332 336 332 315 297 276 263 261 249 236 230 230 224 216 222 220 210 206 211 213 212 206 200 199 196 170 193 188 176 183 200 203 195 191 185 200 195 187 198 208 209 202 201 206 205 203 193 198 200 205 206 205 212 204 205 219 222 215 208 176 178 181 185
333 333 331 328 318 305 288 266 262 244 237 237 230 216 217 213 208 213 216 218 220 215 210 205 195 176 191 184 185 197 199 204 204 201 198 201 196 197 197 200 203 194 191 194 194 193 198 198 199 206 208 200 204 199 196 206 216 228 206 193 177 205 176
339 334 328 322 322 318 306 289 264 248 238 236 233 224 221 216 199 195 183 201 225 229 219 214 206 187 183 188 192 198 199 208 208 206 204 200 195 198 201 202 198 190 189 193 195 201 197 198 201 203 207 201 206 200 189 201 213 203 205 226 185 182 161
345 339 332 323 315 316 311 299 280 254 244 238 232 225 221 201 205 194 190 203 208 223 225 216 210 204 188 177 191 197 195 199 205 207 201 202 197 198 202 204 196 189 193 191 194 197 200 198 198 202 207 208 203 191 190 195 203 201 206 223 205 165 187
340 340 335 324 317 313 315 307 290 266 249 239 233 228 221 214 212 212 202 191 199 226 225 217 200 206 215 197 192 198 196 199 201 201 207 204 200 199 203 204 188 188 194 195 193 193 193 194 192 198 199 200 203 193 191 202 202 204 212 217 214 210 187
337 337 335 331 324 322 317 310 292 266 250 239 233 231 226 219 217 212 202 195 197 208 218 213 202 203 198 202 201 200 202 203 201 204 208 195 208 202 184 189 181 193 199 200 200 198 209 222 202 171 211 208 203 197 198 198 201 206 210 215 187 228 220
344 341 339 335 333 330 325 313 299 275 251 237 231 228 224 222 218 210 205 200 197 200 208 209 208 204 202 199 195 196 201 203 202 201 203 188 200 182 188 204 206 203 205 202 178 136 141 160 186 206 216 210 205 200 203 199 199 204 188 219 184 215 220
347 345 343 342 339 334 327 320 307 286 259 243 235 227 226 226 220 210 204 200 196 196 203 209 198 196 193 192 193 197 198 203 203 204 204 206 205 199 196 207 213 209 195 169 135 155 170 185 192 204 202 198 200 201 198 199 197 187 182 203 211 170 219
350 350 348 345 344 342 337 326 310 296 268 246 238 228 223 226 223 221 217 208 199 195 194 195 183 193 200 191 185 194 195 197 198 203 200 202 203 199 197 201 210 183 162 141 158 160 173 188 198 210 202 203 210 204 197 196 200 193 200 211 195 152 203
354 354 352 352 349 343 341 343 339 317 281 250 239 230 226 224 227 221 220 218 206 199 196 185 175 187 199 200 202 200 191 194 199 209 210 206 201 193 189 192 194 176 177 179 167 158 168 178 175 149 143 153 167 242 314 220 206 205 210 214 205 190 203
359 360 359 357 355 348 349 358 358 349 324 271 238 233 224 228 234 229 221 220 211 197 198 185 183 184 189 192 200 205 197 195 187 196 198 199 190 184 190 188 174 169 180 147 151 156 153 132 104 114 114 102 75 94 206 270 311 273 209 211 213 213 213
6 5 4 5 4 0 358 1 1 354 357 350 298 234 220 232 233 230 232 228 215 196 194 178 185 182 184 185 191 200 202 185 188 189 195 193 186 183 182 184 168 171 168 169 159 151 147 143 143 140 143 142 128 103 85 101 213 262 271 229 218 219 123
12 11 10 9 10 11 9 7 9 14 14 15 16 356 339 298 309 291 273 266 242 203 196 160 187 182 178 179 180 196 180 161 169 170 171 186 188 182 175 163 151 157 172 174 161 153 149 150 146 136 124 110 98 80 55 40 212 204 204 221 223 140 105
16 17 17 16 16 16 16 14 13 15 27 25 20 15 17 11 3 357 8 7 345 336 32 13 245 191 177 177 172 179 162 156 158 151 147 151 163 164 174 179 172 169 168 164 150 154 149 144 138 129 117 112 102 84 63 35 17 38 62 98 95 96 89
20 21 22 23 24 23 20 19 18 13 30 37 33 28 26 23 12 7 13 22 13 6 4 6 345 234 186 178 176 169 146 147 138 135 123 126 134 142 153 187 182 159 151 152 152 154 150 146 137 131 126 119 109 98 90 68 57 70 79 82 87 91 96
20 21 24 26 27 28 28 27 25 24 33 31 40 38 28 22 19 15 16 19 10 18 25 19 7 340 236 201 194 157 155 150 138 131 126 110 123 125 78 43 111 163 169 151 156 158 160 151 141 137 133 126 119 113 112 112 100 86 88 88 85 82 78
21 21 22 24 27 30 31 29 31 30 28 34 39 43 47 35 23 16 13 17 16 20 28 21 15 3 354 284 239 152 152 146 140 144 140 127 117 119 117 83 30 49 140 140 157 165 170 160 141 146 142 130 126 124 129 135 124 119 111 98 87 83 73
21 23 24 18 21 30 33 35 32 36 38 35 33 37 43 51 39 19 13 15 17 13 16 26 25 25 17 13 342 310 154 146 145 144 145 140 136 122 115 111 77 67 123 139 154 171 196 176 143 146 145 137 133 132 142 132 116 113 104 99 95 89 88
7 13 20 20 23 26 26 34 38 39 40 40 38 37 40 44 52 37 17 17 17 20 13 8 33 40 32 26 20 10 336 85 136 140 137 129 129 125 118 92 86 81 114 123 129 133 124 128 125 134 138 140 130 128 128 117 105 106 106 103 100 100 100
6 8 14 24 26 31 30 29 32 35 40 42 41 37 27 28 43 53 37 22 22 16 9 11 9 43 48 36 37 35 40 23 12 114 107 103 94 82 81 84 90 93 96 98 96 93 90 86 76 75 85 101 111 123 122 114 115 111 113 114 107 99 96
11 12 7 12 23 30 33 31 30 33 31 30 37 39 38 33 26 30 43 39 28 22 15 5 14 31 48 52 43 51 43 42 39 45 74 78 74 78 71 71 79 86 88 89 88 89 89 89 83 99 109 108 109 113 118 117 114 113 105 101 101 98 92
12 10 17 13 21 27 29 32 37 37 34 34 32 36 36 34 33 31 23 23 27 27 22 8 5 26 45 52 53 54 54 50 44 53 60 71 79 85 84 75 77 79 80 79 77 74 71 72 86 95 99 106 110 107 101 103 97 99 95 88 85 84 81